SL-16 DEB, 22617

Orbit data source: Space-Track

SL-16 DEB, 22617 is space debris in LEO originally from a launch on Fri, 26 Mar 1993 UTC launched from the Tyuratam Missile And Space Complex (TTMTR). Debris objects in space refer to the collection of defunct objects orbiting the Earth. Examples of debris include non-operational satellites, rocket bodies, and fragments generated from explosions, collisions, or faulty payload assembly.

Loading next visibility...
SL-16 DEB details
Identifier
22617, 1993-016AB
Orbit
LEO
Last TLE update18 hours ago
Origin
Flag of CISRVSN RF (CIS)
ManufacturerUnknown
MissionSpacecraft
Bus & MotorUnknown
MassUnknown
Launch date (UTC)
1993-03-26 (32 years ago)
Launch vehicleUnknown
Launch site
Tyuratam Missile And Space Complex (TTMTR)
Object type
Payload
Rocket body
Debris
Shape & HBRUnknown
Radar Cross SectionSmall (<0.1 m²)

Expand to show TLE details & history

TLE from 18 hours ago
0 SL-16 DEB
1 22617U 93016AB  25023.75579953  .00001304  00000-0  98841-3 0  9990
2 22617  70.9993  53.0923 0134184 176.5177 304.0517 13.91570804609625
Epoch: 2025-01-23T18:08Z
Definitive object data (Epoch: 2025-01-23T18:08:21.079Z)
Latitude55.66831°
Longitude167.57447°
Altitude877.888 km
Speed7.446 km/s
True Right ascension13h 31m 57s
True Declination55° 30' 38"
Sunlit
Object was in daylight at TLE epoch
Visualization TLE readout
Latitude-57.11432°
Longitude-15.8394°
Altitude995.939 km
Speed7.327 km/s
Apparent Right ascension01h 24m 37s
Apparent Declination-48° 58' 46"
Sunlit
Object is in daylight
Visualization observer readout
Local Sidereal Time13:29:47
Azimuth174.634° S
Elevation-80.89°
Doppler factor1
Orbital elements
Apogee altitude1,019.022 km
Perigee altitude823.135 km
Semi-major axis7,299.216 km
Eccentricity0.0134184
Inclination70.9993°
RAAN53.0923°
Arg. of periapsis176.5177°
True anomaly302.76575°
Mean anomaly304.0517°
Eccentric anomaly303.40993°
Mean motion3.4804 °/min
BSTAR0.00098841
Orbital period103.44 mins
Loading maneuver chart data...
Loading historical data...
Loading historical data...
Loading historical data...
Loading historical data...
Loading historical data...
Loading historical data...
Loading historical data...

SL-16 DEB Visibility forecast

Observer location: undefined°, undefined

Span
Click to sort rows by Start time (UTC) header in descending order
Start Az.
Max El. time (UTC)
Max El. Az.
Max El.
End time (UTC)
End Az.
10 mins2025-01-24 13:06:58.729Z333.516° NNW2025-01-24 13:11:58.729Z276.921° WNW44.01°2025-01-24 13:16:58.729Z165.22° S
10 mins2025-01-25 02:27:58.729Z171.042° S2025-01-25 02:31:58.729Z115.21° SE36.219°2025-01-25 02:37:58.729Z35.72° NE
9 mins2025-01-25 04:13:58.729Z250.862° W2025-01-25 04:17:58.729Z297.934° NW26.417°2025-01-25 04:22:58.729Z359.458° N
7 mins2025-01-25 11:32:58.729Z17.111° NNE2025-01-25 11:35:58.729Z59.592° ENE21.703°2025-01-25 11:39:58.729Z106.035° ESE
|